小惑星A/2024 D1

A/2024 D1

English version
Home page
Updated on March 14, 2024

---------------------------------------------------------------------

・ プロフィール

発見日 2024年2月16日
発見光度 21.96等
発見者 Mt. Lemmon Survey

・ 軌道要素

Epoch 2024 Mar. 31.0 TT = JDT 2460400.5                                         
T 2027 Dec. 4.76968 TT                                  Rudenko                 
q   6.7045740            (2000.0)            P               Q                  
z  +0.0005310      Peri.  125.71915     +0.58688084     +0.80966272             
 +/-0.0001477      Node   179.67827     +0.26153555     -0.19441053             
e   0.9964400      Incl.  132.45618     +0.76627021     -0.55376062             
H   11.0                                                                        
>From 38 observations 2023 Dec. 27-2024 Mar. 12, mean residual 0".6.             

・ 光度変化

        H = 11.0  G = 0.15

---------------------------------------------------------------------

軌道要素はM.P.E.C. 2024-E161に掲載されたものです。
光度グラフはComet for Windowsで作成したものです。

---------------------------------------------------------------------

Copyright(C) Seiichi Yoshida (comet@aerith.net). All rights reserved.